Index of /20260507/WXO-DD/model_rdps/10km/18/064
Name Last modified Size Description
Parent Directory -
20260506T18Z_MSC_RDPS_AbsoluteVorticity_IsbL-0250_RLatLon0.09_PT064H.grib2 2026-05-07 03:00 595K
20260506T18Z_MSC_RDPS_AbsoluteVorticity_IsbL-0500_RLatLon0.09_PT064H.grib2 2026-05-07 03:00 560K
20260506T18Z_MSC_RDPS_AbsoluteVorticity_IsbL-0700_RLatLon0.09_PT064H.grib2 2026-05-07 03:00 618K
20260506T18Z_MSC_RDPS_AbsoluteVorticity_IsbL-0850_RLatLon0.09_PT064H.grib2 2026-05-07 03:00 793K
20260506T18Z_MSC_RDPS_AirTemp_AGL-120m_RLatLon0.09_PT064H.grib2 2026-05-07 03:00 378K
20260506T18Z_MSC_RDPS_AirTemp_AGL-2m_RLatLon0.09_PT064H.grib2 2026-05-07 03:00 628K
20260506T18Z_MSC_RDPS_AirTemp_AGL-40m_RLatLon0.09_PT064H.grib2 2026-05-07 03:00 394K
20260506T18Z_MSC_RDPS_AirTemp_AGL-80m_RLatLon0.09_PT064H.grib2 2026-05-07 03:00 384K
20260506T18Z_MSC_RDPS_AirTemp_IsbL-0001_RLatLon0.09_PT064H.grib2 2026-05-07 03:00 232K
20260506T18Z_MSC_RDPS_AirTemp_IsbL-0005_RLatLon0.09_PT064H.grib2 2026-05-07 03:00 376K
20260506T18Z_MSC_RDPS_AirTemp_IsbL-0010_RLatLon0.09_PT064H.grib2 2026-05-07 03:00 390K
20260506T18Z_MSC_RDPS_AirTemp_IsbL-0020_RLatLon0.09_PT064H.grib2 2026-05-07 03:00 314K
20260506T18Z_MSC_RDPS_AirTemp_IsbL-0030_RLatLon0.09_PT064H.grib2 2026-05-07 03:00 338K
20260506T18Z_MSC_RDPS_AirTemp_IsbL-0050_RLatLon0.09_PT064H.grib2 2026-05-07 03:00 312K
20260506T18Z_MSC_RDPS_AirTemp_IsbL-0100_RLatLon0.09_PT064H.grib2 2026-05-07 03:00 424K
20260506T18Z_MSC_RDPS_AirTemp_IsbL-0150_RLatLon0.09_PT064H.grib2 2026-05-07 03:00 409K
20260506T18Z_MSC_RDPS_AirTemp_IsbL-0175_RLatLon0.09_PT064H.grib2 2026-05-07 03:00 403K
20260506T18Z_MSC_RDPS_AirTemp_IsbL-0200_RLatLon0.09_PT064H.grib2 2026-05-07 03:00 409K
20260506T18Z_MSC_RDPS_AirTemp_IsbL-0225_RLatLon0.09_PT064H.grib2 2026-05-07 03:00 411K
20260506T18Z_MSC_RDPS_AirTemp_IsbL-0250_RLatLon0.09_PT064H.grib2 2026-05-07 03:00 420K
20260506T18Z_MSC_RDPS_AirTemp_IsbL-0275_RLatLon0.09_PT064H.grib2 2026-05-07 03:00 400K
20260506T18Z_MSC_RDPS_AirTemp_IsbL-0300_RLatLon0.09_PT064H.grib2 2026-05-07 03:00 431K
20260506T18Z_MSC_RDPS_AirTemp_IsbL-0350_RLatLon0.09_PT064H.grib2 2026-05-07 03:00 419K
20260506T18Z_MSC_RDPS_AirTemp_IsbL-0400_RLatLon0.09_PT064H.grib2 2026-05-07 03:00 420K
20260506T18Z_MSC_RDPS_AirTemp_IsbL-0450_RLatLon0.09_PT064H.grib2 2026-05-07 03:00 429K
20260506T18Z_MSC_RDPS_AirTemp_IsbL-0500_RLatLon0.09_PT064H.grib2 2026-05-07 03:00 441K
20260506T18Z_MSC_RDPS_AirTemp_IsbL-0550_RLatLon0.09_PT064H.grib2 2026-05-07 03:00 457K
20260506T18Z_MSC_RDPS_AirTemp_IsbL-0600_RLatLon0.09_PT064H.grib2 2026-05-07 03:00 474K
20260506T18Z_MSC_RDPS_AirTemp_IsbL-0650_RLatLon0.09_PT064H.grib2 2026-05-07 03:00 489K
20260506T18Z_MSC_RDPS_AirTemp_IsbL-0700_RLatLon0.09_PT064H.grib2 2026-05-07 03:00 519K
20260506T18Z_MSC_RDPS_AirTemp_IsbL-0750_RLatLon0.09_PT064H.grib2 2026-05-07 03:00 522K
20260506T18Z_MSC_RDPS_AirTemp_IsbL-0800_RLatLon0.09_PT064H.grib2 2026-05-07 03:00 579K
20260506T18Z_MSC_RDPS_AirTemp_IsbL-0850_RLatLon0.09_PT064H.grib2 2026-05-07 03:00 637K
20260506T18Z_MSC_RDPS_AirTemp_IsbL-0875_RLatLon0.09_PT064H.grib2 2026-05-07 03:00 655K
20260506T18Z_MSC_RDPS_AirTemp_IsbL-0900_RLatLon0.09_PT064H.grib2 2026-05-07 03:00 661K
20260506T18Z_MSC_RDPS_AirTemp_IsbL-0925_RLatLon0.09_PT064H.grib2 2026-05-07 03:00 528K
20260506T18Z_MSC_RDPS_AirTemp_IsbL-0950_RLatLon0.09_PT064H.grib2 2026-05-07 03:00 530K
20260506T18Z_MSC_RDPS_AirTemp_IsbL-0970_RLatLon0.09_PT064H.grib2 2026-05-07 03:00 522K
20260506T18Z_MSC_RDPS_AirTemp_IsbL-0985_RLatLon0.09_PT064H.grib2 2026-05-07 03:00 505K
20260506T18Z_MSC_RDPS_AirTemp_IsbL-1000_RLatLon0.09_PT064H.grib2 2026-05-07 03:00 494K
20260506T18Z_MSC_RDPS_AirTemp_IsbL-1015_RLatLon0.09_PT064H.grib2 2026-05-07 03:00 495K
20260506T18Z_MSC_RDPS_Albedo_Sfc_RLatLon0.09_PT064H.grib2 2026-05-07 03:00 156K
20260506T18Z_MSC_RDPS_CAPE_Sfc_RLatLon0.09_PT064H.grib2 2026-05-07 03:00 1.6M
20260506T18Z_MSC_RDPS_CIN_Sfc_RLatLon0.09_PT064H.grib2 2026-05-07 03:00 1.1M
20260506T18Z_MSC_RDPS_CloudWater_EAtm_RLatLon0.09_PT064H.grib2 2026-05-07 03:00 225K
20260506T18Z_MSC_RDPS_ConvectivePrecip-Accum_Sfc_RLatLon0.09_PT064H.grib2 2026-05-07 03:00 1.2M
20260506T18Z_MSC_RDPS_DewPointDepression_AGL-2m_RLatLon0.09_PT064H.grib2 2026-05-07 03:00 395K
20260506T18Z_MSC_RDPS_DewPointDepression_IsbL-0001_RLatLon0.09_PT064H.grib2 2026-05-07 03:00 193
20260506T18Z_MSC_RDPS_DewPointDepression_IsbL-0005_RLatLon0.09_PT064H.grib2 2026-05-07 03:00 193
20260506T18Z_MSC_RDPS_DewPointDepression_IsbL-0010_RLatLon0.09_PT064H.grib2 2026-05-07 03:00 193
20260506T18Z_MSC_RDPS_DewPointDepression_IsbL-0020_RLatLon0.09_PT064H.grib2 2026-05-07 03:00 193
20260506T18Z_MSC_RDPS_DewPointDepression_IsbL-0030_RLatLon0.09_PT064H.grib2 2026-05-07 03:00 193
20260506T18Z_MSC_RDPS_DewPointDepression_IsbL-0050_RLatLon0.09_PT064H.grib2 2026-05-07 03:00 80K
20260506T18Z_MSC_RDPS_DewPointDepression_IsbL-0100_RLatLon0.09_PT064H.grib2 2026-05-07 03:00 113K
20260506T18Z_MSC_RDPS_DewPointDepression_IsbL-0150_RLatLon0.09_PT064H.grib2 2026-05-07 03:00 141K
20260506T18Z_MSC_RDPS_DewPointDepression_IsbL-0175_RLatLon0.09_PT064H.grib2 2026-05-07 03:00 174K
20260506T18Z_MSC_RDPS_DewPointDepression_IsbL-0200_RLatLon0.09_PT064H.grib2 2026-05-07 03:00 219K
20260506T18Z_MSC_RDPS_DewPointDepression_IsbL-0225_RLatLon0.09_PT064H.grib2 2026-05-07 03:00 254K
20260506T18Z_MSC_RDPS_DewPointDepression_IsbL-0250_RLatLon0.09_PT064H.grib2 2026-05-07 03:00 296K
20260506T18Z_MSC_RDPS_DewPointDepression_IsbL-0275_RLatLon0.09_PT064H.grib2 2026-05-07 03:00 303K
20260506T18Z_MSC_RDPS_DewPointDepression_IsbL-0300_RLatLon0.09_PT064H.grib2 2026-05-07 03:00 318K
20260506T18Z_MSC_RDPS_DewPointDepression_IsbL-0350_RLatLon0.09_PT064H.grib2 2026-05-07 03:00 322K
20260506T18Z_MSC_RDPS_DewPointDepression_IsbL-0400_RLatLon0.09_PT064H.grib2 2026-05-07 03:00 330K
20260506T18Z_MSC_RDPS_DewPointDepression_IsbL-0450_RLatLon0.09_PT064H.grib2 2026-05-07 03:00 334K
20260506T18Z_MSC_RDPS_DewPointDepression_IsbL-0500_RLatLon0.09_PT064H.grib2 2026-05-07 03:00 337K
20260506T18Z_MSC_RDPS_DewPointDepression_IsbL-0550_RLatLon0.09_PT064H.grib2 2026-05-07 03:00 350K
20260506T18Z_MSC_RDPS_DewPointDepression_IsbL-0600_RLatLon0.09_PT064H.grib2 2026-05-07 03:00 365K
20260506T18Z_MSC_RDPS_DewPointDepression_IsbL-0650_RLatLon0.09_PT064H.grib2 2026-05-07 03:00 373K
20260506T18Z_MSC_RDPS_DewPointDepression_IsbL-0700_RLatLon0.09_PT064H.grib2 2026-05-07 03:00 383K
20260506T18Z_MSC_RDPS_DewPointDepression_IsbL-0750_RLatLon0.09_PT064H.grib2 2026-05-07 03:00 405K
20260506T18Z_MSC_RDPS_DewPointDepression_IsbL-0800_RLatLon0.09_PT064H.grib2 2026-05-07 03:00 448K
20260506T18Z_MSC_RDPS_DewPointDepression_IsbL-0850_RLatLon0.09_PT064H.grib2 2026-05-07 03:00 484K
20260506T18Z_MSC_RDPS_DewPointDepression_IsbL-0875_RLatLon0.09_PT064H.grib2 2026-05-07 03:00 478K
20260506T18Z_MSC_RDPS_DewPointDepression_IsbL-0900_RLatLon0.09_PT064H.grib2 2026-05-07 03:00 460K
20260506T18Z_MSC_RDPS_DewPointDepression_IsbL-0925_RLatLon0.09_PT064H.grib2 2026-05-07 03:00 447K
20260506T18Z_MSC_RDPS_DewPointDepression_IsbL-0950_RLatLon0.09_PT064H.grib2 2026-05-07 03:00 437K
20260506T18Z_MSC_RDPS_DewPointDepression_IsbL-0970_RLatLon0.09_PT064H.grib2 2026-05-07 03:00 429K
20260506T18Z_MSC_RDPS_DewPointDepression_IsbL-0985_RLatLon0.09_PT064H.grib2 2026-05-07 03:00 424K
20260506T18Z_MSC_RDPS_DewPointDepression_IsbL-1000_RLatLon0.09_PT064H.grib2 2026-05-07 03:00 422K
20260506T18Z_MSC_RDPS_DewPointDepression_IsbL-1015_RLatLon0.09_PT064H.grib2 2026-05-07 03:00 413K
20260506T18Z_MSC_RDPS_DewPoint_AGL-2m_RLatLon0.09_PT064H.grib2 2026-05-07 03:00 393K
20260506T18Z_MSC_RDPS_DownwardLongwaveRadiationFlux-Accum_Sfc_RLatLon0.09_PT064H.grib2 2026-05-07 03:00 416K
20260506T18Z_MSC_RDPS_DownwardShortwaveRadiationFlux-Accum_NTAtm_RLatLon0.09_PT064H.grib2 2026-05-07 03:00 160K
20260506T18Z_MSC_RDPS_DownwardShortwaveRadiationFlux-Accum_Sfc_RLatLon0.09_PT064H.grib2 2026-05-07 03:00 611K
20260506T18Z_MSC_RDPS_FreezingRain-Accum1h_Sfc_RLatLon0.09_PT064H.grib2 2026-05-07 03:00 53K
20260506T18Z_MSC_RDPS_FreezingRain-Accum_Sfc_RLatLon0.09_PT064H.grib2 2026-05-07 03:00 228K
20260506T18Z_MSC_RDPS_GeopotentialHeight_IsbL-0001_RLatLon0.09_PT064H.grib2 2026-05-07 03:00 314K
20260506T18Z_MSC_RDPS_GeopotentialHeight_IsbL-0005_RLatLon0.09_PT064H.grib2 2026-05-07 03:00 338K
20260506T18Z_MSC_RDPS_GeopotentialHeight_IsbL-0010_RLatLon0.09_PT064H.grib2 2026-05-07 03:00 307K
20260506T18Z_MSC_RDPS_GeopotentialHeight_IsbL-0020_RLatLon0.09_PT064H.grib2 2026-05-07 03:00 306K
20260506T18Z_MSC_RDPS_GeopotentialHeight_IsbL-0030_RLatLon0.09_PT064H.grib2 2026-05-07 03:00 307K
20260506T18Z_MSC_RDPS_GeopotentialHeight_IsbL-0050_RLatLon0.09_PT064H.grib2 2026-05-07 03:00 309K
20260506T18Z_MSC_RDPS_GeopotentialHeight_IsbL-0100_RLatLon0.09_PT064H.grib2 2026-05-07 03:00 286K
20260506T18Z_MSC_RDPS_GeopotentialHeight_IsbL-0150_RLatLon0.09_PT064H.grib2 2026-05-07 03:00 227K
20260506T18Z_MSC_RDPS_GeopotentialHeight_IsbL-0175_RLatLon0.09_PT064H.grib2 2026-05-07 03:00 229K
20260506T18Z_MSC_RDPS_GeopotentialHeight_IsbL-0200_RLatLon0.09_PT064H.grib2 2026-05-07 03:00 231K
20260506T18Z_MSC_RDPS_GeopotentialHeight_IsbL-0225_RLatLon0.09_PT064H.grib2 2026-05-07 03:00 264K
20260506T18Z_MSC_RDPS_GeopotentialHeight_IsbL-0250_RLatLon0.09_PT064H.grib2 2026-05-07 03:00 266K
20260506T18Z_MSC_RDPS_GeopotentialHeight_IsbL-0275_RLatLon0.09_PT064H.grib2 2026-05-07 03:00 234K
20260506T18Z_MSC_RDPS_GeopotentialHeight_IsbL-0300_RLatLon0.09_PT064H.grib2 2026-05-07 03:00 234K
20260506T18Z_MSC_RDPS_GeopotentialHeight_IsbL-0350_RLatLon0.09_PT064H.grib2 2026-05-07 03:00 230K
20260506T18Z_MSC_RDPS_GeopotentialHeight_IsbL-0400_RLatLon0.09_PT064H.grib2 2026-05-07 03:00 299K
20260506T18Z_MSC_RDPS_GeopotentialHeight_IsbL-0450_RLatLon0.09_PT064H.grib2 2026-05-07 03:00 294K
20260506T18Z_MSC_RDPS_GeopotentialHeight_IsbL-0500_RLatLon0.09_PT064H.grib2 2026-05-07 03:00 288K
20260506T18Z_MSC_RDPS_GeopotentialHeight_IsbL-0550_RLatLon0.09_PT064H.grib2 2026-05-07 03:00 285K
20260506T18Z_MSC_RDPS_GeopotentialHeight_IsbL-0600_RLatLon0.09_PT064H.grib2 2026-05-07 03:00 281K
20260506T18Z_MSC_RDPS_GeopotentialHeight_IsbL-0650_RLatLon0.09_PT064H.grib2 2026-05-07 03:00 253K
20260506T18Z_MSC_RDPS_GeopotentialHeight_IsbL-0700_RLatLon0.09_PT064H.grib2 2026-05-07 03:00 253K
20260506T18Z_MSC_RDPS_GeopotentialHeight_IsbL-0750_RLatLon0.09_PT064H.grib2 2026-05-07 03:00 256K
20260506T18Z_MSC_RDPS_GeopotentialHeight_IsbL-0800_RLatLon0.09_PT064H.grib2 2026-05-07 03:00 264K
20260506T18Z_MSC_RDPS_GeopotentialHeight_IsbL-0850_RLatLon0.09_PT064H.grib2 2026-05-07 03:00 272K
20260506T18Z_MSC_RDPS_GeopotentialHeight_IsbL-0875_RLatLon0.09_PT064H.grib2 2026-05-07 03:00 274K
20260506T18Z_MSC_RDPS_GeopotentialHeight_IsbL-0900_RLatLon0.09_PT064H.grib2 2026-05-07 03:00 277K
20260506T18Z_MSC_RDPS_GeopotentialHeight_IsbL-0925_RLatLon0.09_PT064H.grib2 2026-05-07 03:00 278K
20260506T18Z_MSC_RDPS_GeopotentialHeight_IsbL-0950_RLatLon0.09_PT064H.grib2 2026-05-07 03:00 282K
20260506T18Z_MSC_RDPS_GeopotentialHeight_IsbL-0970_RLatLon0.09_PT064H.grib2 2026-05-07 03:00 287K
20260506T18Z_MSC_RDPS_GeopotentialHeight_IsbL-0985_RLatLon0.09_PT064H.grib2 2026-05-07 03:00 293K
20260506T18Z_MSC_RDPS_GeopotentialHeight_IsbL-1000_RLatLon0.09_PT064H.grib2 2026-05-07 03:00 302K
20260506T18Z_MSC_RDPS_GeopotentialHeight_IsbL-1015_RLatLon0.09_PT064H.grib2 2026-05-07 03:00 314K
20260506T18Z_MSC_RDPS_Humidex_Sfc_RLatLon0.09_PT064H.grib2 2026-05-07 03:00 2.4M
20260506T18Z_MSC_RDPS_IcePellets-Accum1h_Sfc_RLatLon0.09_PT064H.grib2 2026-05-07 03:00 8.6K
20260506T18Z_MSC_RDPS_IcePellets-Accum_Sfc_RLatLon0.09_PT064H.grib2 2026-05-07 03:00 32K
20260506T18Z_MSC_RDPS_KIndex_Sfc_RLatLon0.09_PT064H.grib2 2026-05-07 03:00 2.5M
20260506T18Z_MSC_RDPS_LatentHeatNetFlux_Sfc_RLatLon0.09_PT064H.grib2 2026-05-07 03:00 322K
20260506T18Z_MSC_RDPS_LiftedIndex-MU-VT_IsbL-0500_RLatLon0.09_PT064H.grib2 2026-05-07 03:00 2.4M
20260506T18Z_MSC_RDPS_NetLongwaveRadiationFlux-Accum_Sfc_RLatLon0.09_PT064H.grib2 2026-05-07 03:00 594K
20260506T18Z_MSC_RDPS_NetShortwaveRadiationFlux-Accum_Sfc_RLatLon0.09_PT064H.grib2 2026-05-07 03:00 610K
20260506T18Z_MSC_RDPS_PlanetaryBoundaryLayerHeight_Sfc_RLatLon0.09_PT064H.grib2 2026-05-07 03:00 1.1M
20260506T18Z_MSC_RDPS_Precip-Accum1h_Sfc_RLatLon0.09_PT064H.grib2 2026-05-07 03:00 1.3M
20260506T18Z_MSC_RDPS_Precip-Accum_Sfc_RLatLon0.09_PT064H.grib2 2026-05-07 03:00 2.2M
20260506T18Z_MSC_RDPS_PrecipRate_Sfc_RLatLon0.09_PT064H.grib2 2026-05-07 03:00 169K
20260506T18Z_MSC_RDPS_PrecipType-Instant_Sfc_RLatLon0.09_PT064H.grib2 2026-05-07 03:00 592K
20260506T18Z_MSC_RDPS_Pressure-Trend3h_Sfc_RLatLon0.09_PT064H.grib2 2026-05-07 03:00 1.2M
20260506T18Z_MSC_RDPS_Pressure_MSL_RLatLon0.09_PT064H.grib2 2026-05-07 03:00 325K
20260506T18Z_MSC_RDPS_Pressure_PVU-1.5_RLatLon0.09_PT064H.grib2 2026-05-07 03:00 2.3M
20260506T18Z_MSC_RDPS_Pressure_PVU-1_RLatLon0.09_PT064H.grib2 2026-05-07 03:00 2.4M
20260506T18Z_MSC_RDPS_Pressure_PVU-2_RLatLon0.09_PT064H.grib2 2026-05-07 03:00 2.3M
20260506T18Z_MSC_RDPS_Pressure_Sfc_RLatLon0.09_PT064H.grib2 2026-05-07 03:00 499K
20260506T18Z_MSC_RDPS_RadiativeTemp_Sfc_RLatLon0.09_PT064H.grib2 2026-05-07 03:00 391K
20260506T18Z_MSC_RDPS_Rain-Accum1h_Sfc_RLatLon0.09_PT064H.grib2 2026-05-07 03:00 574K
20260506T18Z_MSC_RDPS_Rain-Accum_Sfc_RLatLon0.09_PT064H.grib2 2026-05-07 03:00 1.8M
20260506T18Z_MSC_RDPS_RelativeHumidity_AGL-2m_RLatLon0.09_PT064H.grib2 2026-05-07 03:00 1.0M
20260506T18Z_MSC_RDPS_RelativeHumidity_IsbL-0010_RLatLon0.09_PT064H.grib2 2026-05-07 03:00 422K
20260506T18Z_MSC_RDPS_RelativeHumidity_IsbL-0020_RLatLon0.09_PT064H.grib2 2026-05-07 03:00 641K
20260506T18Z_MSC_RDPS_RelativeHumidity_IsbL-0030_RLatLon0.09_PT064H.grib2 2026-05-07 03:00 631K
20260506T18Z_MSC_RDPS_RelativeHumidity_IsbL-0050_RLatLon0.09_PT064H.grib2 2026-05-07 03:00 359K
20260506T18Z_MSC_RDPS_RelativeHumidity_IsbL-0100_RLatLon0.09_PT064H.grib2 2026-05-07 03:00 277K
20260506T18Z_MSC_RDPS_RelativeHumidity_IsbL-0150_RLatLon0.09_PT064H.grib2 2026-05-07 03:00 405K
20260506T18Z_MSC_RDPS_RelativeHumidity_IsbL-0175_RLatLon0.09_PT064H.grib2 2026-05-07 03:00 464K
20260506T18Z_MSC_RDPS_RelativeHumidity_IsbL-0200_RLatLon0.09_PT064H.grib2 2026-05-07 03:00 540K
20260506T18Z_MSC_RDPS_RelativeHumidity_IsbL-0225_RLatLon0.09_PT064H.grib2 2026-05-07 03:00 605K
20260506T18Z_MSC_RDPS_RelativeHumidity_IsbL-0250_RLatLon0.09_PT064H.grib2 2026-05-07 03:00 677K
20260506T18Z_MSC_RDPS_RelativeHumidity_IsbL-0275_RLatLon0.09_PT064H.grib2 2026-05-07 03:00 703K
20260506T18Z_MSC_RDPS_RelativeHumidity_IsbL-0300_RLatLon0.09_PT064H.grib2 2026-05-07 03:00 745K
20260506T18Z_MSC_RDPS_RelativeHumidity_IsbL-0350_RLatLon0.09_PT064H.grib2 2026-05-07 03:00 763K
20260506T18Z_MSC_RDPS_RelativeHumidity_IsbL-0400_RLatLon0.09_PT064H.grib2 2026-05-07 03:00 775K
20260506T18Z_MSC_RDPS_RelativeHumidity_IsbL-0450_RLatLon0.09_PT064H.grib2 2026-05-07 03:00 782K
20260506T18Z_MSC_RDPS_RelativeHumidity_IsbL-0500_RLatLon0.09_PT064H.grib2 2026-05-07 03:00 790K
20260506T18Z_MSC_RDPS_RelativeHumidity_IsbL-0550_RLatLon0.09_PT064H.grib2 2026-05-07 03:00 807K
20260506T18Z_MSC_RDPS_RelativeHumidity_IsbL-0600_RLatLon0.09_PT064H.grib2 2026-05-07 03:00 826K
20260506T18Z_MSC_RDPS_RelativeHumidity_IsbL-0650_RLatLon0.09_PT064H.grib2 2026-05-07 03:00 842K
20260506T18Z_MSC_RDPS_RelativeHumidity_IsbL-0700_RLatLon0.09_PT064H.grib2 2026-05-07 03:00 878K
20260506T18Z_MSC_RDPS_RelativeHumidity_IsbL-0750_RLatLon0.09_PT064H.grib2 2026-05-07 03:00 925K
20260506T18Z_MSC_RDPS_RelativeHumidity_IsbL-0800_RLatLon0.09_PT064H.grib2 2026-05-07 03:00 1.0M
20260506T18Z_MSC_RDPS_RelativeHumidity_IsbL-0850_RLatLon0.09_PT064H.grib2 2026-05-07 03:00 1.0M
20260506T18Z_MSC_RDPS_RelativeHumidity_IsbL-0875_RLatLon0.09_PT064H.grib2 2026-05-07 03:00 1.1M
20260506T18Z_MSC_RDPS_RelativeHumidity_IsbL-0900_RLatLon0.09_PT064H.grib2 2026-05-07 03:00 1.1M
20260506T18Z_MSC_RDPS_RelativeHumidity_IsbL-0925_RLatLon0.09_PT064H.grib2 2026-05-07 03:00 1.1M
20260506T18Z_MSC_RDPS_RelativeHumidity_IsbL-0950_RLatLon0.09_PT064H.grib2 2026-05-07 03:00 1.1M
20260506T18Z_MSC_RDPS_RelativeHumidity_IsbL-0970_RLatLon0.09_PT064H.grib2 2026-05-07 03:00 1.0M
20260506T18Z_MSC_RDPS_RelativeHumidity_IsbL-0985_RLatLon0.09_PT064H.grib2 2026-05-07 03:00 1.0M
20260506T18Z_MSC_RDPS_RelativeHumidity_IsbL-1000_RLatLon0.09_PT064H.grib2 2026-05-07 03:00 1.0M
20260506T18Z_MSC_RDPS_RelativeHumidity_IsbL-1015_RLatLon0.09_PT064H.grib2 2026-05-07 03:00 1.0M
20260506T18Z_MSC_RDPS_Runoff-Accum_Sfc_RLatLon0.09_PT064H.grib2 2026-05-07 03:00 64K
20260506T18Z_MSC_RDPS_SWEATIndex_Sfc_RLatLon0.09_PT064H.grib2 2026-05-07 03:00 2.4M
20260506T18Z_MSC_RDPS_SeeingIndex_EAtm_RLatLon0.09_PT064H.grib2 2026-05-07 03:00 1.0M
20260506T18Z_MSC_RDPS_SensibleHeatNetFlux_Sfc_RLatLon0.09_PT064H.grib2 2026-05-07 03:00 218K
20260506T18Z_MSC_RDPS_ShowalterIndex_IsbL-0500_RLatLon0.09_PT064H.grib2 2026-05-07 03:00 2.6M
20260506T18Z_MSC_RDPS_SkyTransparencyIndex_EAtm_RLatLon0.09_PT064H.grib2 2026-05-07 03:00 701K
20260506T18Z_MSC_RDPS_Snow-Accum1h_Sfc_RLatLon0.09_PT064H.grib2 2026-05-07 03:00 444K
20260506T18Z_MSC_RDPS_Snow-Accum_Sfc_RLatLon0.09_PT064H.grib2 2026-05-07 03:00 719K
20260506T18Z_MSC_RDPS_SnowDensity_Sfc_RLatLon0.09_PT064H.grib2 2026-05-07 03:00 175K
20260506T18Z_MSC_RDPS_SnowDepth_Sfc_RLatLon0.09_PT064H.grib2 2026-05-07 03:00 628K
20260506T18Z_MSC_RDPS_SoilTemp_DBS-0to10cm_RLatLon0.09_PT064H.grib2 2026-05-07 03:00 241K
20260506T18Z_MSC_RDPS_SoilTemp_Sfc_RLatLon0.09_PT064H.grib2 2026-05-07 03:00 284K
20260506T18Z_MSC_RDPS_SoilVolumetricIceContent_Sfc_RLatLon0.09_PT064H.grib2 2026-05-07 03:00 145K
20260506T18Z_MSC_RDPS_SoilVolumetricWaterContent_DBS-0to10cm_RLatLon0.09_PT064H.grib2 2026-05-07 03:00 290K
20260506T18Z_MSC_RDPS_SoilVolumetricWaterContent_DBS-0to1cm_RLatLon0.09_PT064H.grib2 2026-05-07 03:00 343K
20260506T18Z_MSC_RDPS_SpecificHumidity_AGL-120m_RLatLon0.09_PT064H.grib2 2026-05-07 03:00 496K
20260506T18Z_MSC_RDPS_SpecificHumidity_AGL-2m_RLatLon0.09_PT064H.grib2 2026-05-07 03:00 668K
20260506T18Z_MSC_RDPS_SpecificHumidity_AGL-40m_RLatLon0.09_PT064H.grib2 2026-05-07 03:00 503K
20260506T18Z_MSC_RDPS_SpecificHumidity_AGL-80m_RLatLon0.09_PT064H.grib2 2026-05-07 03:00 498K
20260506T18Z_MSC_RDPS_SpecificHumidity_IsbL-0001_RLatLon0.09_PT064H.grib2 2026-05-07 03:00 363K
20260506T18Z_MSC_RDPS_SpecificHumidity_IsbL-0005_RLatLon0.09_PT064H.grib2 2026-05-07 03:00 372K
20260506T18Z_MSC_RDPS_SpecificHumidity_IsbL-0010_RLatLon0.09_PT064H.grib2 2026-05-07 03:00 402K
20260506T18Z_MSC_RDPS_SpecificHumidity_IsbL-0020_RLatLon0.09_PT064H.grib2 2026-05-07 03:00 490K
20260506T18Z_MSC_RDPS_SpecificHumidity_IsbL-0030_RLatLon0.09_PT064H.grib2 2026-05-07 03:00 370K
20260506T18Z_MSC_RDPS_SpecificHumidity_IsbL-0050_RLatLon0.09_PT064H.grib2 2026-05-07 03:00 474K
20260506T18Z_MSC_RDPS_SpecificHumidity_IsbL-0100_RLatLon0.09_PT064H.grib2 2026-05-07 03:00 412K
20260506T18Z_MSC_RDPS_SpecificHumidity_IsbL-0150_RLatLon0.09_PT064H.grib2 2026-05-07 03:00 447K
20260506T18Z_MSC_RDPS_SpecificHumidity_IsbL-0175_RLatLon0.09_PT064H.grib2 2026-05-07 03:00 432K
20260506T18Z_MSC_RDPS_SpecificHumidity_IsbL-0200_RLatLon0.09_PT064H.grib2 2026-05-07 03:00 465K
20260506T18Z_MSC_RDPS_SpecificHumidity_IsbL-0225_RLatLon0.09_PT064H.grib2 2026-05-07 03:00 447K
20260506T18Z_MSC_RDPS_SpecificHumidity_IsbL-0250_RLatLon0.09_PT064H.grib2 2026-05-07 03:00 511K
20260506T18Z_MSC_RDPS_SpecificHumidity_IsbL-0275_RLatLon0.09_PT064H.grib2 2026-05-07 03:00 470K
20260506T18Z_MSC_RDPS_SpecificHumidity_IsbL-0300_RLatLon0.09_PT064H.grib2 2026-05-07 03:00 444K
20260506T18Z_MSC_RDPS_SpecificHumidity_IsbL-0350_RLatLon0.09_PT064H.grib2 2026-05-07 03:00 438K
20260506T18Z_MSC_RDPS_SpecificHumidity_IsbL-0400_RLatLon0.09_PT064H.grib2 2026-05-07 03:00 517K
20260506T18Z_MSC_RDPS_SpecificHumidity_IsbL-0450_RLatLon0.09_PT064H.grib2 2026-05-07 03:00 568K
20260506T18Z_MSC_RDPS_SpecificHumidity_IsbL-0500_RLatLon0.09_PT064H.grib2 2026-05-07 03:00 505K
20260506T18Z_MSC_RDPS_SpecificHumidity_IsbL-0550_RLatLon0.09_PT064H.grib2 2026-05-07 03:00 577K
20260506T18Z_MSC_RDPS_SpecificHumidity_IsbL-0600_RLatLon0.09_PT064H.grib2 2026-05-07 03:00 629K
20260506T18Z_MSC_RDPS_SpecificHumidity_IsbL-0650_RLatLon0.09_PT064H.grib2 2026-05-07 03:00 548K
20260506T18Z_MSC_RDPS_SpecificHumidity_IsbL-0700_RLatLon0.09_PT064H.grib2 2026-05-07 03:00 596K
20260506T18Z_MSC_RDPS_SpecificHumidity_IsbL-0750_RLatLon0.09_PT064H.grib2 2026-05-07 03:00 656K
20260506T18Z_MSC_RDPS_SpecificHumidity_IsbL-0800_RLatLon0.09_PT064H.grib2 2026-05-07 03:00 748K
20260506T18Z_MSC_RDPS_SpecificHumidity_IsbL-0850_RLatLon0.09_PT064H.grib2 2026-05-07 03:00 826K
20260506T18Z_MSC_RDPS_SpecificHumidity_IsbL-0875_RLatLon0.09_PT064H.grib2 2026-05-07 03:00 847K
20260506T18Z_MSC_RDPS_SpecificHumidity_IsbL-0900_RLatLon0.09_PT064H.grib2 2026-05-07 03:00 851K
20260506T18Z_MSC_RDPS_SpecificHumidity_IsbL-0925_RLatLon0.09_PT064H.grib2 2026-05-07 03:00 850K
20260506T18Z_MSC_RDPS_SpecificHumidity_IsbL-0950_RLatLon0.09_PT064H.grib2 2026-05-07 03:00 847K
20260506T18Z_MSC_RDPS_SpecificHumidity_IsbL-0970_RLatLon0.09_PT064H.grib2 2026-05-07 03:00 841K
20260506T18Z_MSC_RDPS_SpecificHumidity_IsbL-0985_RLatLon0.09_PT064H.grib2 2026-05-07 03:00 692K
20260506T18Z_MSC_RDPS_SpecificHumidity_IsbL-1000_RLatLon0.09_PT064H.grib2 2026-05-07 03:00 688K
20260506T18Z_MSC_RDPS_SpecificHumidity_IsbL-1015_RLatLon0.09_PT064H.grib2 2026-05-07 03:00 679K
20260506T18Z_MSC_RDPS_SpecificHumidity_Sfc_RLatLon0.09_PT064H.grib2 2026-05-07 03:00 303K
20260506T18Z_MSC_RDPS_StormRelativeHelicity_EtaL-10000_RLatLon0.09_PT064H.grib2 2026-05-07 03:00 1.1M
20260506T18Z_MSC_RDPS_StormSeverityIndex_EtaL-10000_RLatLon0.09_PT064H.grib2 2026-05-07 03:00 1.2M
20260506T18Z_MSC_RDPS_Thickness_IsbL-0850to0700_RLatLon0.09_PT064H.grib2 2026-05-07 03:00 249K
20260506T18Z_MSC_RDPS_Thickness_IsbL-1000to0500_RLatLon0.09_PT064H.grib2 2026-05-07 03:00 194K
20260506T18Z_MSC_RDPS_Thickness_IsbL-1000to0850_RLatLon0.09_PT064H.grib2 2026-05-07 03:00 261K
20260506T18Z_MSC_RDPS_TotalCloudCover_Sfc_RLatLon0.09_PT064H.grib2 2026-05-07 03:00 665K
20260506T18Z_MSC_RDPS_TotalTotalsIndex_Sfc_RLatLon0.09_PT064H.grib2 2026-05-07 03:00 2.5M
20260506T18Z_MSC_RDPS_UVIndex-ClearSky_Sfc_RLatLon0.09_PT064H.grib2 2026-05-07 03:00 102K
20260506T18Z_MSC_RDPS_UVIndex_Sfc_RLatLon0.09_PT064H.grib2 2026-05-07 03:00 223K
20260506T18Z_MSC_RDPS_UpwardLongwaveRadiationFlux_NTAtm_RLatLon0.09_PT064H.grib2 2026-05-07 03:00 485K
20260506T18Z_MSC_RDPS_UpwardShortwaveRadiationFlux_NTAtm_RLatLon0.09_PT064H.grib2 2026-05-07 03:00 212K
20260506T18Z_MSC_RDPS_VerticalVelocity_IsbL-0250_RLatLon0.09_PT064H.grib2 2026-05-07 03:00 547K
20260506T18Z_MSC_RDPS_VerticalVelocity_IsbL-0500_RLatLon0.09_PT064H.grib2 2026-05-07 03:00 533K
20260506T18Z_MSC_RDPS_VerticalVelocity_IsbL-0700_RLatLon0.09_PT064H.grib2 2026-05-07 03:00 614K
20260506T18Z_MSC_RDPS_VerticalVelocity_IsbL-0850_RLatLon0.09_PT064H.grib2 2026-05-07 03:00 699K
20260506T18Z_MSC_RDPS_VerticalWindShear_EtaL-6500_RLatLon0.09_PT064H.grib2 2026-05-07 03:00 1.2M
20260506T18Z_MSC_RDPS_WindChill_Sfc_RLatLon0.09_PT064H.grib2 2026-05-07 03:00 1.2M
20260506T18Z_MSC_RDPS_WindDir_AGL-10m_RLatLon0.09_PT064H.grib2 2026-05-07 03:00 1.0M
20260506T18Z_MSC_RDPS_WindDir_AGL-120m_RLatLon0.09_PT064H.grib2 2026-05-07 03:00 611K
20260506T18Z_MSC_RDPS_WindDir_AGL-40m_RLatLon0.09_PT064H.grib2 2026-05-07 03:00 649K
20260506T18Z_MSC_RDPS_WindDir_AGL-80m_RLatLon0.09_PT064H.grib2 2026-05-07 03:00 626K
20260506T18Z_MSC_RDPS_WindDir_IsbL-0001_RLatLon0.09_PT064H.grib2 2026-05-07 03:00 297K
20260506T18Z_MSC_RDPS_WindDir_IsbL-0005_RLatLon0.09_PT064H.grib2 2026-05-07 03:00 372K
20260506T18Z_MSC_RDPS_WindDir_IsbL-0010_RLatLon0.09_PT064H.grib2 2026-05-07 03:00 389K
20260506T18Z_MSC_RDPS_WindDir_IsbL-0020_RLatLon0.09_PT064H.grib2 2026-05-07 03:00 409K
20260506T18Z_MSC_RDPS_WindDir_IsbL-0030_RLatLon0.09_PT064H.grib2 2026-05-07 03:00 413K
20260506T18Z_MSC_RDPS_WindDir_IsbL-0050_RLatLon0.09_PT064H.grib2 2026-05-07 03:00 441K
20260506T18Z_MSC_RDPS_WindDir_IsbL-0100_RLatLon0.09_PT064H.grib2 2026-05-07 03:00 415K
20260506T18Z_MSC_RDPS_WindDir_IsbL-0150_RLatLon0.09_PT064H.grib2 2026-05-07 03:00 420K
20260506T18Z_MSC_RDPS_WindDir_IsbL-0175_RLatLon0.09_PT064H.grib2 2026-05-07 03:00 442K
20260506T18Z_MSC_RDPS_WindDir_IsbL-0200_RLatLon0.09_PT064H.grib2 2026-05-07 03:00 457K
20260506T18Z_MSC_RDPS_WindDir_IsbL-0225_RLatLon0.09_PT064H.grib2 2026-05-07 03:00 462K
20260506T18Z_MSC_RDPS_WindDir_IsbL-0250_RLatLon0.09_PT064H.grib2 2026-05-07 03:00 465K
20260506T18Z_MSC_RDPS_WindDir_IsbL-0275_RLatLon0.09_PT064H.grib2 2026-05-07 03:00 481K
20260506T18Z_MSC_RDPS_WindDir_IsbL-0300_RLatLon0.09_PT064H.grib2 2026-05-07 03:00 475K
20260506T18Z_MSC_RDPS_WindDir_IsbL-0350_RLatLon0.09_PT064H.grib2 2026-05-07 03:00 502K
20260506T18Z_MSC_RDPS_WindDir_IsbL-0400_RLatLon0.09_PT064H.grib2 2026-05-07 03:00 524K
20260506T18Z_MSC_RDPS_WindDir_IsbL-0450_RLatLon0.09_PT064H.grib2 2026-05-07 03:00 537K
20260506T18Z_MSC_RDPS_WindDir_IsbL-0500_RLatLon0.09_PT064H.grib2 2026-05-07 03:00 560K
20260506T18Z_MSC_RDPS_WindDir_IsbL-0550_RLatLon0.09_PT064H.grib2 2026-05-07 03:00 570K
20260506T18Z_MSC_RDPS_WindDir_IsbL-0600_RLatLon0.09_PT064H.grib2 2026-05-07 03:00 587K
20260506T18Z_MSC_RDPS_WindDir_IsbL-0650_RLatLon0.09_PT064H.grib2 2026-05-07 03:00 620K
20260506T18Z_MSC_RDPS_WindDir_IsbL-0700_RLatLon0.09_PT064H.grib2 2026-05-07 03:00 662K
20260506T18Z_MSC_RDPS_WindDir_IsbL-0750_RLatLon0.09_PT064H.grib2 2026-05-07 03:00 709K
20260506T18Z_MSC_RDPS_WindDir_IsbL-0800_RLatLon0.09_PT064H.grib2 2026-05-07 03:00 779K
20260506T18Z_MSC_RDPS_WindDir_IsbL-0850_RLatLon0.09_PT064H.grib2 2026-05-07 03:00 854K
20260506T18Z_MSC_RDPS_WindDir_IsbL-0875_RLatLon0.09_PT064H.grib2 2026-05-07 03:00 878K
20260506T18Z_MSC_RDPS_WindDir_IsbL-0900_RLatLon0.09_PT064H.grib2 2026-05-07 03:00 895K
20260506T18Z_MSC_RDPS_WindDir_IsbL-0925_RLatLon0.09_PT064H.grib2 2026-05-07 03:00 910K
20260506T18Z_MSC_RDPS_WindDir_IsbL-0950_RLatLon0.09_PT064H.grib2 2026-05-07 03:00 919K
20260506T18Z_MSC_RDPS_WindDir_IsbL-0970_RLatLon0.09_PT064H.grib2 2026-05-07 03:00 929K
20260506T18Z_MSC_RDPS_WindDir_IsbL-0985_RLatLon0.09_PT064H.grib2 2026-05-07 03:00 941K
20260506T18Z_MSC_RDPS_WindDir_IsbL-1000_RLatLon0.09_PT064H.grib2 2026-05-07 03:00 959K
20260506T18Z_MSC_RDPS_WindDir_IsbL-1015_RLatLon0.09_PT064H.grib2 2026-05-07 03:00 1.0M
20260506T18Z_MSC_RDPS_WindGust-Max_AGL-10m_RLatLon0.09_PT064H.grib2 2026-05-07 03:00 1.0M
20260506T18Z_MSC_RDPS_WindGust-Min_AGL-10m_RLatLon0.09_PT064H.grib2 2026-05-07 03:00 973K
20260506T18Z_MSC_RDPS_WindGust_AGL-10m_RLatLon0.09_PT064H.grib2 2026-05-07 03:00 1.0M
20260506T18Z_MSC_RDPS_WindSpeed_AGL-10m_RLatLon0.09_PT064H.grib2 2026-05-07 03:00 849K
20260506T18Z_MSC_RDPS_WindSpeed_AGL-120m_RLatLon0.09_PT064H.grib2 2026-05-07 03:00 548K
20260506T18Z_MSC_RDPS_WindSpeed_AGL-40m_RLatLon0.09_PT064H.grib2 2026-05-07 03:00 550K
20260506T18Z_MSC_RDPS_WindSpeed_AGL-80m_RLatLon0.09_PT064H.grib2 2026-05-07 03:00 548K
20260506T18Z_MSC_RDPS_WindSpeed_IsbL-0001_RLatLon0.09_PT064H.grib2 2026-05-07 03:00 253K
20260506T18Z_MSC_RDPS_WindSpeed_IsbL-0005_RLatLon0.09_PT064H.grib2 2026-05-07 03:00 383K
20260506T18Z_MSC_RDPS_WindSpeed_IsbL-0010_RLatLon0.09_PT064H.grib2 2026-05-07 03:00 396K
20260506T18Z_MSC_RDPS_WindSpeed_IsbL-0020_RLatLon0.09_PT064H.grib2 2026-05-07 03:00 323K
20260506T18Z_MSC_RDPS_WindSpeed_IsbL-0030_RLatLon0.09_PT064H.grib2 2026-05-07 03:00 320K
20260506T18Z_MSC_RDPS_WindSpeed_IsbL-0050_RLatLon0.09_PT064H.grib2 2026-05-07 03:00 451K
20260506T18Z_MSC_RDPS_WindSpeed_IsbL-0100_RLatLon0.09_PT064H.grib2 2026-05-07 03:00 436K
20260506T18Z_MSC_RDPS_WindSpeed_IsbL-0150_RLatLon0.09_PT064H.grib2 2026-05-07 03:00 373K
20260506T18Z_MSC_RDPS_WindSpeed_IsbL-0175_RLatLon0.09_PT064H.grib2 2026-05-07 03:00 418K
20260506T18Z_MSC_RDPS_WindSpeed_IsbL-0200_RLatLon0.09_PT064H.grib2 2026-05-07 03:00 435K
20260506T18Z_MSC_RDPS_WindSpeed_IsbL-0225_RLatLon0.09_PT064H.grib2 2026-05-07 03:00 444K
20260506T18Z_MSC_RDPS_WindSpeed_IsbL-0250_RLatLon0.09_PT064H.grib2 2026-05-07 03:00 447K
20260506T18Z_MSC_RDPS_WindSpeed_IsbL-0275_RLatLon0.09_PT064H.grib2 2026-05-07 03:00 463K
20260506T18Z_MSC_RDPS_WindSpeed_IsbL-0300_RLatLon0.09_PT064H.grib2 2026-05-07 03:00 461K
20260506T18Z_MSC_RDPS_WindSpeed_IsbL-0350_RLatLon0.09_PT064H.grib2 2026-05-07 03:00 472K
20260506T18Z_MSC_RDPS_WindSpeed_IsbL-0400_RLatLon0.09_PT064H.grib2 2026-05-07 03:00 456K
20260506T18Z_MSC_RDPS_WindSpeed_IsbL-0450_RLatLon0.09_PT064H.grib2 2026-05-07 03:00 458K
20260506T18Z_MSC_RDPS_WindSpeed_IsbL-0500_RLatLon0.09_PT064H.grib2 2026-05-07 03:00 578K
20260506T18Z_MSC_RDPS_WindSpeed_IsbL-0550_RLatLon0.09_PT064H.grib2 2026-05-07 03:00 580K
20260506T18Z_MSC_RDPS_WindSpeed_IsbL-0600_RLatLon0.09_PT064H.grib2 2026-05-07 03:00 588K
20260506T18Z_MSC_RDPS_WindSpeed_IsbL-0650_RLatLon0.09_PT064H.grib2 2026-05-07 03:00 651K
20260506T18Z_MSC_RDPS_WindSpeed_IsbL-0700_RLatLon0.09_PT064H.grib2 2026-05-07 03:00 633K
20260506T18Z_MSC_RDPS_WindSpeed_IsbL-0750_RLatLon0.09_PT064H.grib2 2026-05-07 03:00 711K
20260506T18Z_MSC_RDPS_WindSpeed_IsbL-0800_RLatLon0.09_PT064H.grib2 2026-05-07 03:00 765K
20260506T18Z_MSC_RDPS_WindSpeed_IsbL-0850_RLatLon0.09_PT064H.grib2 2026-05-07 03:00 827K
20260506T18Z_MSC_RDPS_WindSpeed_IsbL-0875_RLatLon0.09_PT064H.grib2 2026-05-07 03:00 845K
20260506T18Z_MSC_RDPS_WindSpeed_IsbL-0900_RLatLon0.09_PT064H.grib2 2026-05-07 03:00 860K
20260506T18Z_MSC_RDPS_WindSpeed_IsbL-0925_RLatLon0.09_PT064H.grib2 2026-05-07 03:00 871K
20260506T18Z_MSC_RDPS_WindSpeed_IsbL-0950_RLatLon0.09_PT064H.grib2 2026-05-07 03:00 874K
20260506T18Z_MSC_RDPS_WindSpeed_IsbL-0970_RLatLon0.09_PT064H.grib2 2026-05-07 03:00 867K
20260506T18Z_MSC_RDPS_WindSpeed_IsbL-0985_RLatLon0.09_PT064H.grib2 2026-05-07 03:00 861K
20260506T18Z_MSC_RDPS_WindSpeed_IsbL-1000_RLatLon0.09_PT064H.grib2 2026-05-07 03:00 856K
20260506T18Z_MSC_RDPS_WindSpeed_IsbL-1015_RLatLon0.09_PT064H.grib2 2026-05-07 03:00 849K
20260506T18Z_MSC_RDPS_WindU_AGL-10m_RLatLon0.09_PT064H.grib2 2026-05-07 03:00 435K
20260506T18Z_MSC_RDPS_WindU_AGL-120m_RLatLon0.09_PT064H.grib2 2026-05-07 03:00 424K
20260506T18Z_MSC_RDPS_WindU_AGL-40m_RLatLon0.09_PT064H.grib2 2026-05-07 03:00 544K
20260506T18Z_MSC_RDPS_WindU_AGL-80m_RLatLon0.09_PT064H.grib2 2026-05-07 03:00 425K
20260506T18Z_MSC_RDPS_WindU_IsbL-0001_RLatLon0.09_PT064H.grib2 2026-05-07 03:00 297K
20260506T18Z_MSC_RDPS_WindU_IsbL-0005_RLatLon0.09_PT064H.grib2 2026-05-07 03:00 286K
20260506T18Z_MSC_RDPS_WindU_IsbL-0010_RLatLon0.09_PT064H.grib2 2026-05-07 03:00 297K
20260506T18Z_MSC_RDPS_WindU_IsbL-0020_RLatLon0.09_PT064H.grib2 2026-05-07 03:00 314K
20260506T18Z_MSC_RDPS_WindU_IsbL-0030_RLatLon0.09_PT064H.grib2 2026-05-07 03:00 311K
20260506T18Z_MSC_RDPS_WindU_IsbL-0050_RLatLon0.09_PT064H.grib2 2026-05-07 03:00 341K
20260506T18Z_MSC_RDPS_WindU_IsbL-0100_RLatLon0.09_PT064H.grib2 2026-05-07 03:00 429K
20260506T18Z_MSC_RDPS_WindU_IsbL-0150_RLatLon0.09_PT064H.grib2 2026-05-07 03:00 392K
20260506T18Z_MSC_RDPS_WindU_IsbL-0175_RLatLon0.09_PT064H.grib2 2026-05-07 03:00 414K
20260506T18Z_MSC_RDPS_WindU_IsbL-0200_RLatLon0.09_PT064H.grib2 2026-05-07 03:00 429K
20260506T18Z_MSC_RDPS_WindU_IsbL-0225_RLatLon0.09_PT064H.grib2 2026-05-07 03:00 435K
20260506T18Z_MSC_RDPS_WindU_IsbL-0250_RLatLon0.09_PT064H.grib2 2026-05-07 03:00 338K
20260506T18Z_MSC_RDPS_WindU_IsbL-0275_RLatLon0.09_PT064H.grib2 2026-05-07 03:00 351K
20260506T18Z_MSC_RDPS_WindU_IsbL-0300_RLatLon0.09_PT064H.grib2 2026-05-07 03:00 347K
20260506T18Z_MSC_RDPS_WindU_IsbL-0350_RLatLon0.09_PT064H.grib2 2026-05-07 03:00 356K
20260506T18Z_MSC_RDPS_WindU_IsbL-0400_RLatLon0.09_PT064H.grib2 2026-05-07 03:00 460K
20260506T18Z_MSC_RDPS_WindU_IsbL-0450_RLatLon0.09_PT064H.grib2 2026-05-07 03:00 462K
20260506T18Z_MSC_RDPS_WindU_IsbL-0500_RLatLon0.09_PT064H.grib2 2026-05-07 03:00 466K
20260506T18Z_MSC_RDPS_WindU_IsbL-0550_RLatLon0.09_PT064H.grib2 2026-05-07 03:00 469K
20260506T18Z_MSC_RDPS_WindU_IsbL-0600_RLatLon0.09_PT064H.grib2 2026-05-07 03:00 460K
20260506T18Z_MSC_RDPS_WindU_IsbL-0650_RLatLon0.09_PT064H.grib2 2026-05-07 03:00 495K
20260506T18Z_MSC_RDPS_WindU_IsbL-0700_RLatLon0.09_PT064H.grib2 2026-05-07 03:00 516K
20260506T18Z_MSC_RDPS_WindU_IsbL-0750_RLatLon0.09_PT064H.grib2 2026-05-07 03:00 546K
20260506T18Z_MSC_RDPS_WindU_IsbL-0800_RLatLon0.09_PT064H.grib2 2026-05-07 03:00 578K
20260506T18Z_MSC_RDPS_WindU_IsbL-0850_RLatLon0.09_PT064H.grib2 2026-05-07 03:00 634K
20260506T18Z_MSC_RDPS_WindU_IsbL-0875_RLatLon0.09_PT064H.grib2 2026-05-07 03:00 649K
20260506T18Z_MSC_RDPS_WindU_IsbL-0900_RLatLon0.09_PT064H.grib2 2026-05-07 03:00 666K
20260506T18Z_MSC_RDPS_WindU_IsbL-0925_RLatLon0.09_PT064H.grib2 2026-05-07 03:00 667K
20260506T18Z_MSC_RDPS_WindU_IsbL-0950_RLatLon0.09_PT064H.grib2 2026-05-07 03:00 666K
20260506T18Z_MSC_RDPS_WindU_IsbL-0970_RLatLon0.09_PT064H.grib2 2026-05-07 03:00 660K
20260506T18Z_MSC_RDPS_WindU_IsbL-0985_RLatLon0.09_PT064H.grib2 2026-05-07 03:00 794K
20260506T18Z_MSC_RDPS_WindU_IsbL-1000_RLatLon0.09_PT064H.grib2 2026-05-07 03:00 790K
20260506T18Z_MSC_RDPS_WindU_IsbL-1015_RLatLon0.09_PT064H.grib2 2026-05-07 03:00 785K
20260506T18Z_MSC_RDPS_WindV_AGL-10m_RLatLon0.09_PT064H.grib2 2026-05-07 03:00 434K
20260506T18Z_MSC_RDPS_WindV_AGL-120m_RLatLon0.09_PT064H.grib2 2026-05-07 03:00 424K
20260506T18Z_MSC_RDPS_WindV_AGL-40m_RLatLon0.09_PT064H.grib2 2026-05-07 03:00 544K
20260506T18Z_MSC_RDPS_WindV_AGL-80m_RLatLon0.09_PT064H.grib2 2026-05-07 03:00 543K
20260506T18Z_MSC_RDPS_WindV_IsbL-0001_RLatLon0.09_PT064H.grib2 2026-05-07 03:00 246K
20260506T18Z_MSC_RDPS_WindV_IsbL-0005_RLatLon0.09_PT064H.grib2 2026-05-07 03:00 286K
20260506T18Z_MSC_RDPS_WindV_IsbL-0010_RLatLon0.09_PT064H.grib2 2026-05-07 03:00 299K
20260506T18Z_MSC_RDPS_WindV_IsbL-0020_RLatLon0.09_PT064H.grib2 2026-05-07 03:00 317K
20260506T18Z_MSC_RDPS_WindV_IsbL-0030_RLatLon0.09_PT064H.grib2 2026-05-07 03:00 316K
20260506T18Z_MSC_RDPS_WindV_IsbL-0050_RLatLon0.09_PT064H.grib2 2026-05-07 03:00 344K
20260506T18Z_MSC_RDPS_WindV_IsbL-0100_RLatLon0.09_PT064H.grib2 2026-05-07 03:00 426K
20260506T18Z_MSC_RDPS_WindV_IsbL-0150_RLatLon0.09_PT064H.grib2 2026-05-07 03:00 388K
20260506T18Z_MSC_RDPS_WindV_IsbL-0175_RLatLon0.09_PT064H.grib2 2026-05-07 03:00 410K
20260506T18Z_MSC_RDPS_WindV_IsbL-0200_RLatLon0.09_PT064H.grib2 2026-05-07 03:00 330K
20260506T18Z_MSC_RDPS_WindV_IsbL-0225_RLatLon0.09_PT064H.grib2 2026-05-07 03:00 361K
20260506T18Z_MSC_RDPS_WindV_IsbL-0250_RLatLon0.09_PT064H.grib2 2026-05-07 03:00 363K
20260506T18Z_MSC_RDPS_WindV_IsbL-0275_RLatLon0.09_PT064H.grib2 2026-05-07 03:00 375K
20260506T18Z_MSC_RDPS_WindV_IsbL-0300_RLatLon0.09_PT064H.grib2 2026-05-07 03:00 372K
20260506T18Z_MSC_RDPS_WindV_IsbL-0350_RLatLon0.09_PT064H.grib2 2026-05-07 03:00 356K
20260506T18Z_MSC_RDPS_WindV_IsbL-0400_RLatLon0.09_PT064H.grib2 2026-05-07 03:00 358K
20260506T18Z_MSC_RDPS_WindV_IsbL-0450_RLatLon0.09_PT064H.grib2 2026-05-07 03:00 459K
20260506T18Z_MSC_RDPS_WindV_IsbL-0500_RLatLon0.09_PT064H.grib2 2026-05-07 03:00 462K
20260506T18Z_MSC_RDPS_WindV_IsbL-0550_RLatLon0.09_PT064H.grib2 2026-05-07 03:00 464K
20260506T18Z_MSC_RDPS_WindV_IsbL-0600_RLatLon0.09_PT064H.grib2 2026-05-07 03:00 471K
20260506T18Z_MSC_RDPS_WindV_IsbL-0650_RLatLon0.09_PT064H.grib2 2026-05-07 03:00 488K
20260506T18Z_MSC_RDPS_WindV_IsbL-0700_RLatLon0.09_PT064H.grib2 2026-05-07 03:00 496K
20260506T18Z_MSC_RDPS_WindV_IsbL-0750_RLatLon0.09_PT064H.grib2 2026-05-07 03:00 527K
20260506T18Z_MSC_RDPS_WindV_IsbL-0800_RLatLon0.09_PT064H.grib2 2026-05-07 03:00 574K
20260506T18Z_MSC_RDPS_WindV_IsbL-0850_RLatLon0.09_PT064H.grib2 2026-05-07 03:00 629K
20260506T18Z_MSC_RDPS_WindV_IsbL-0875_RLatLon0.09_PT064H.grib2 2026-05-07 03:00 654K
20260506T18Z_MSC_RDPS_WindV_IsbL-0900_RLatLon0.09_PT064H.grib2 2026-05-07 03:00 658K
20260506T18Z_MSC_RDPS_WindV_IsbL-0925_RLatLon0.09_PT064H.grib2 2026-05-07 03:00 665K
20260506T18Z_MSC_RDPS_WindV_IsbL-0950_RLatLon0.09_PT064H.grib2 2026-05-07 03:00 666K
20260506T18Z_MSC_RDPS_WindV_IsbL-0970_RLatLon0.09_PT064H.grib2 2026-05-07 03:00 661K
20260506T18Z_MSC_RDPS_WindV_IsbL-0985_RLatLon0.09_PT064H.grib2 2026-05-07 03:00 656K
20260506T18Z_MSC_RDPS_WindV_IsbL-1000_RLatLon0.09_PT064H.grib2 2026-05-07 03:00 791K
20260506T18Z_MSC_RDPS_WindV_IsbL-1015_RLatLon0.09_PT064H.grib2 2026-05-07 03:00 785K